TimeCDT,TemperatureF,Dew PointF,Humidity,Sea Level PressureIn,VisibilityMPH,Wind Direction,Wind SpeedMPH,Gust SpeedMPH,PrecipitationIn,Events,Conditions,WindDirDegrees,DateUTC
12:23 AM,66.2,66.2,100,29.84,10.0,SE,11.5,-,N/A,,Mostly Cloudy,140,2014-03-16 05:23:00
12:28 AM,66.2,66.2,100,29.84,10.0,SE,12.7,18.4,N/A,,Mostly Cloudy,140,2014-03-16 05:28:00
12:58 AM,65.5,65.5,100,29.82,10.0,SE,11.5,18.4,N/A,,Mostly Cloudy,140,2014-03-16 05:58:00
1:13 AM,66.2,66.2,100,29.81,10.0,SE,12.7,-,N/A,,Mostly Cloudy,140,2014-03-16 06:13:00
1:18 AM,64.4,64.4,100,29.81,10.0,SSE,13.8,-,N/A,,Mostly Cloudy,150,2014-03-16 06:18:00
1:23 AM,64.4,64.4,100,29.81,10.0,SSE,10.4,-,N/A,,Mostly Cloudy,150,2014-03-16 06:23:00
1:28 AM,64.4,64.4,100,29.81,10.0,SSE,13.8,-,N/A,,Scattered Clouds,150,2014-03-16 06:28:00
1:43 AM,64.4,64.4,100,29.80,10.0,SSE,13.8,18.4,N/A,,Mostly Cloudy,160,2014-03-16 06:43:00
1:48 AM,64.4,64.4,100,29.80,10.0,SSE,10.4,-,N/A,,Mostly Cloudy,150,2014-03-16 06:48:00
1:58 AM,64.8,64.8,100,29.81,10.0,SSE,10.4,-,N/A,,Mostly Cloudy,150,2014-03-16 06:58:00
2:23 AM,64.4,64.4,100,29.78,10.0,SSE,9.2,-,N/A,,Overcast,150,2014-03-16 07:23:00
2:28 AM,64.4,64.4,100,29.78,10.0,SSE,10.4,-,N/A,,Overcast,150,2014-03-16 07:28:00
2:39 AM,66.2,66.2,100,29.77,10.0,SSE,11.5,18.4,N/A,Rain,Light Rain,160,2014-03-16 07:39:00
2:44 AM,66.2,66.2,100,29.76,9.0,South,11.5,18.4,N/A,Rain,Light Rain,170,2014-03-16 07:44:00
2:49 AM,66.2,66.2,100,29.76,9.0,SSE,10.4,21.9,N/A,Rain,Light Rain,160,2014-03-16 07:49:00
2:54 AM,66.2,66.2,100,29.75,10.0,SSE,13.8,21.9,N/A,,Overcast,160,2014-03-16 07:54:00
2:58 AM,66.2,66.2,100,29.76,10.0,SSE,12.7,19.6,0.00,,Overcast,160,2014-03-16 07:58:00
3:38 AM,66.2,66.2,100,29.73,9.0,South,13.8,23.0,N/A,,Overcast,170,2014-03-16 08:38:00
3:43 AM,66.2,66.2,100,29.73,9.0,South,15.0,23.0,N/A,,Overcast,190,2014-03-16 08:43:00
3:58 AM,66.2,66.2,100,29.73,9.0,South,16.1,27.6,N/A,,Overcast,170,2014-03-16 08:58:00
4:08 AM,66.2,66.2,100,29.71,9.0,South,15.0,24.2,N/A,,Overcast,180,2014-03-16 09:08:00
4:23 AM,66.2,66.2,100,29.71,9.0,South,16.1,24.2,N/A,,Overcast,180,2014-03-16 09:23:00
4:28 AM,66.2,66.2,100,29.70,9.0,South,16.1,25.3,N/A,,Overcast,180,2014-03-16 09:28:00
4:58 AM,66.2,66.2,100,29.71,9.0,South,16.1,23.0,N/A,,Overcast,190,2014-03-16 09:58:00
5:33 AM,66.2,66.2,100,29.69,9.0,SSW,21.9,29.9,N/A,,Overcast,200,2014-03-16 10:33:00
5:58 AM,66.2,66.2,100,29.70,10.0,SSW,19.6,28.8,N/A,,Mostly Cloudy,200,2014-03-16 10:58:00
6:08 AM,66.2,66.2,100,29.68,10.0,SSW,19.6,27.6,N/A,,Mostly Cloudy,200,2014-03-16 11:08:00
6:23 AM,66.2,66.2,100,29.68,9.0,SSW,20.7,31.1,N/A,,Overcast,200,2014-03-16 11:23:00
6:48 AM,66.2,66.2,100,29.66,7.0,SSW,19.6,28.8,N/A,,Overcast,200,2014-03-16 11:48:00
6:58 AM,65.7,65.7,100,29.67,5.0,SSW,19.6,26.5,N/A,,Overcast,210,2014-03-16 11:58:00
7:03 AM,66.2,66.2,100,29.66,3.0,SSW,17.3,26.5,N/A,,Overcast,210,2014-03-16 12:03:00
7:08 AM,64.4,64.4,100,29.67,2.0,SSW,17.3,26.5,N/A,,Overcast,210,2014-03-16 12:08:00
7:13 AM,64.4,64.4,100,29.67,1.8,SW,17.3,-,N/A,,Overcast,220,2014-03-16 12:13:00
7:23 AM,64.4,64.4,100,29.67,1.5,SSW,19.6,24.2,N/A,,Overcast,210,2014-03-16 12:23:00
7:28 AM,64.4,64.4,100,29.67,1.2,SW,20.7,-,N/A,,Overcast,220,2014-03-16 12:28:00
7:33 AM,64.4,64.4,100,29.68,1.0,WSW,17.3,-,N/A,,Mist,240,2014-03-16 12:33:00
7:38 AM,66.2,66.2,100,29.68,1.0,SW,19.6,25.3,N/A,,Mist,220,2014-03-16 12:38:00
7:43 AM,66.2,66.2,100,29.69,0.8,SW,25.3,28.8,N/A,,Mist,230,2014-03-16 12:43:00
7:48 AM,66.2,66.2,100,29.69,0.8,SW,24.2,31.1,N/A,,Mist,230,2014-03-16 12:48:00
7:52 AM,66.2,66.2,100,29.71,1.2,WSW,17.3,31.1,N/A,Rain,Light Rain,240,2014-03-16 12:52:00
7:57 AM,66.2,66.2,100,29.72,2.5,West,8.1,28.8,N/A,Rain-Thunderstorm,Light Rain,270,2014-03-16 12:57:00
7:58 AM,66.2,66.2,100,29.73,2.5,Variable,6.9,-,0.00,Rain-Thunderstorm,Light Rain,0,2014-03-16 12:58:00
8:12 AM,64.4,64.4,100,29.73,1.8,West,6.9,-,N/A,Rain-Thunderstorm,Light Thunderstorms and Rain,260,2014-03-16 13:12:00
8:17 AM,64.4,64.4,100,29.74,1.0,West,9.2,-,N/A,Rain-Thunderstorm,Thunderstorms and Rain,270,2014-03-16 13:17:00
8:22 AM,64.4,64.4,100,29.72,0.5,WSW,12.7,20.7,N/A,Fog-Rain-Thunderstorm,Heavy Thunderstorms and Rain,240,2014-03-16 13:22:00
8:27 AM,64.4,64.4,100,29.73,0.5,WSW,16.1,25.3,N/A,Fog-Rain-Thunderstorm,Heavy Thunderstorms and Rain,240,2014-03-16 13:27:00
8:37 AM,64.4,64.4,100,29.73,0.2,Variable,5.8,18.4,N/A,Fog-Rain-Thunderstorm,Heavy Thunderstorms and Rain,0,2014-03-16 13:37:00
8:42 AM,66.2,66.2,100,29.72,0.5,WSW,11.5,18.4,N/A,Fog-Rain-Thunderstorm,Heavy Thunderstorms and Rain,250,2014-03-16 13:42:00
8:44 AM,66.2,66.2,100,29.72,0.5,WSW,11.5,18.4,N/A,Fog-Rain,Heavy Rain,240,2014-03-16 13:44:00
8:46 AM,66.2,66.2,100,29.72,0.8,WSW,11.5,18.4,N/A,Rain-Thunderstorm,Heavy Thunderstorms and Rain,240,2014-03-16 13:46:00
8:51 AM,66.2,66.2,100,29.72,1.5,WSW,10.4,18.4,N/A,Rain-Thunderstorm,Thunderstorms and Rain,250,2014-03-16 13:51:00
8:58 AM,65.8,65.8,100,29.74,1.5,WSW,10.4,-,1.15,Rain-Thunderstorm,Heavy Thunderstorms and Rain,240,2014-03-16 13:58:00
9:08 AM,64.4,64.4,100,29.71,2.5,Variable,5.8,-,N/A,Rain-Thunderstorm,Light Thunderstorms and Rain,0,2014-03-16 14:08:00
9:13 AM,64.4,64.4,100,29.71,4.0,West,4.6,-,N/A,Rain-Thunderstorm,Light Thunderstorms and Rain,260,2014-03-16 14:13:00
9:20 AM,66.2,66.2,100,29.70,10.0,Variable,5.8,-,N/A,Rain-Thunderstorm,Light Rain,0,2014-03-16 14:20:00
9:58 AM,64.4,64.4,100,29.71,7.0,SW,6.9,-,0.16,Rain,Light Rain,230,2014-03-16 14:58:00
10:03 AM,66.2,66.2,100,29.71,10.0,SW,6.9,-,N/A,Rain-Thunderstorm,Light Rain,220,2014-03-16 15:03:00
10:08 AM,66.2,66.2,100,29.70,10.0,SW,5.8,-,N/A,Rain-Thunderstorm,Light Rain,220,2014-03-16 15:08:00
10:12 AM,66.2,66.2,100,29.71,10.0,SW,8.1,-,N/A,Thunderstorm,Overcast,230,2014-03-16 15:12:00
10:27 AM,66.2,66.2,100,29.72,10.0,SW,8.1,-,N/A,,Overcast,230,2014-03-16 15:27:00
10:42 AM,66.2,66.2,100,29.71,10.0,SW,8.1,-,N/A,,Mostly Cloudy,220,2014-03-16 15:42:00
10:47 AM,66.2,66.2,100,29.71,10.0,SW,5.8,-,N/A,,Mostly Cloudy,220,2014-03-16 15:47:00
10:52 AM,68.0,68.0,100,29.71,10.0,WSW,4.6,-,N/A,,Scattered Clouds,240,2014-03-16 15:52:00
10:58 AM,67.1,67.1,100,29.72,10.0,SSW,5.8,-,0.00,,Scattered Clouds,210,2014-03-16 15:58:00
11:58 AM,70.2,69.3,97,29.72,10.0,WSW,8.1,-,N/A,,Partly Cloudy,240,2014-03-16 16:58:00
12:58 PM,72.3,67.6,85,29.69,10.0,SSE,4.6,-,N/A,,Mostly Cloudy,160,2014-03-16 17:58:00
1:58 PM,72.9,65.8,79,29.64,10.0,South,8.1,-,N/A,,Mostly Cloudy,180,2014-03-16 18:58:00
2:58 PM,68.0,66.4,95,29.61,10.0,SSE,4.6,-,N/A,,Scattered Clouds,150,2014-03-16 19:58:00
3:36 PM,66.2,66.2,100,29.65,10.0,South,11.5,-,N/A,Rain,Light Rain,170,2014-03-16 20:36:00
3:58 PM,66.2,66.2,100,29.67,7.0,South,8.1,-,0.01,Rain,Light Rain,170,2014-03-16 20:58:00
4:58 PM,66.2,66.2,100,29.64,10.0,South,11.5,-,0.05,Rain,Light Rain,180,2014-03-16 21:58:00
5:05 PM,66.2,66.2,100,29.63,10.0,South,10.4,-,N/A,,Scattered Clouds,170,2014-03-16 22:05:00
5:58 PM,66.2,66.2,100,29.66,10.0,South,8.1,-,0.01,,Mostly Cloudy,180,2014-03-16 22:58:00
6:16 PM,66.2,66.2,100,29.67,10.0,SSW,8.1,-,N/A,Rain,Light Rain,210,2014-03-16 23:16:00
6:46 PM,66.2,66.2,100,29.70,3.0,Variable,2.3,-,N/A,Rain,Rain,0,2014-03-16 23:46:00
6:51 PM,66.2,66.2,100,29.70,3.0,Calm,Calm,-,N/A,Rain,Light Rain,0,2014-03-16 23:51:00
6:56 PM,66.2,66.2,100,29.69,4.0,SW,3.5,-,N/A,Rain,Light Rain,220,2014-03-16 23:56:00
6:58 PM,66.2,66.2,100,29.70,5.0,SSW,3.5,-,0.06,Rain,Light Rain,210,2014-03-16 23:58:00
7:38 PM,66.2,66.2,100,29.68,9.0,South,5.8,-,N/A,Rain,Light Rain,190,2014-03-17 00:38:00
7:48 PM,66.2,66.2,100,29.68,10.0,SSW,6.9,-,N/A,Rain,Light Rain,210,2014-03-17 00:48:00
7:58 PM,65.3,65.3,100,29.69,10.0,South,6.9,-,0.04,Rain,Light Rain,190,2014-03-17 00:58:00
8:15 PM,64.4,64.4,100,29.67,10.0,South,8.1,-,N/A,,Clear,170,2014-03-17 01:15:00
8:58 PM,65.1,65.1,100,29.69,10.0,South,10.4,-,0.00,,Partly Cloudy,180,2014-03-17 01:58:00
9:58 PM,63.9,63.9,100,29.72,10.0,South,8.1,-,0.01,,Scattered Clouds,190,2014-03-17 02:58:00
10:33 PM,62.6,62.6,100,29.73,10.0,SSW,8.1,-,N/A,,Overcast,210,2014-03-17 03:33:00
10:43 PM,62.6,62.6,100,29.73,10.0,WSW,5.8,-,N/A,,Overcast,240,2014-03-17 03:43:00
10:48 PM,62.6,62.6,100,29.73,10.0,WSW,4.6,-,N/A,,Overcast,240,2014-03-17 03:48:00
10:53 PM,62.6,62.6,100,29.73,10.0,WSW,5.8,-,N/A,,Overcast,250,2014-03-17 03:53:00
10:58 PM,63.5,63.5,100,29.74,10.0,WSW,8.1,-,N/A,,Overcast,240,2014-03-17 03:58:00
11:13 PM,62.6,62.6,100,29.73,10.0,WSW,4.6,-,N/A,,Overcast,240,2014-03-17 04:13:00
11:23 PM,62.6,62.6,100,29.72,10.0,SW,3.5,-,N/A,,Overcast,230,2014-03-17 04:23:00
11:38 PM,62.6,62.6,100,29.74,10.0,SW,5.8,-,N/A,,Overcast,230,2014-03-17 04:38:00
11:58 PM,63.1,62.6,98,29.75,10.0,SW,6.9,-,N/A,,Overcast,230,2014-03-17 04:58:00